星链-30786 (STARLINK-30786 )

导读 | 星芒AI

STARLINK-30786 是 SpaceX Starlink 卫星互联网项目中的一颗低轨卫星,属于第三代星链卫星(v1.5)。该卫星于2023年发射,旨在为全球用户提供高速、低延迟的宽带互联网服务。它运行在约550公里高的近地轨道,配备先进通信设备和激光链路,以提升网络效率和覆盖范围。作为星链计划的重要组成部分,STARLINK-30786 有助于扩展 SpaceX 在全球卫星互联网市场的影响力。

基本信息
目录编号:
58216
目录名称:
STARLINK-30786
国际标识:
2023-170L
轨道中心:
EARTH
卫星名称:
星链-30786
卫星全名:
星链-30786 (STARLINK-30786 )
卫星状态:
已陨落 最后检测时间 2024-11-21
发射日期:
2023-11-03 UTC
国别 :
美国 (US)
星等 :
--
轨道信息
数据来源 国际轨道数据
星历时间: 2024-11-20T10:23:42+0800
轨道信息已过期346天
半长轴: 6601.93km
偏心率: 0.0015366
轨道倾角: 42.996°
近地点辐角 297.208°
升交点赤经 140.155°
平近点角 134.561°
近地点: 213.65km
远地点: 233.94km
周期: 88.975分钟
每日圈数: 16.184395
详细信息
固有亮度:
5
最大亮度:
0.3
卫星平台:
Starlink v2.0 mini
覆盖范围:
全球
运营商:
太空探索技术公司
运营商所在国:
美国
制造商(研发单位):
太空探索技术公司
制造商所在国:
美国
使用方式:
暂无
卫星简介
星链(Starlink)计划是由太空探索技术公司(SpaceX)提出的一个巨型低轨卫星互联网星座项目,计划在2019年至2024年间在太空搭建由约1.2万颗卫星组成的“星链”网络,其中1584颗将部署在地球上空550千米处的近地轨道,并从2020年开始工作。该卫星仍在工作。